Showing default

MIDAS 3, 163

Orbit data source: Space-Track

MIDAS 3, 163 is a payload satellite owned by USAF SSD (US) in LEO that was launched on Wed, 12 Jul 1961 UTC via an ATLAS AGENA B launch vehicle from the Air Force Western Test Range (AFWTR). Payload-class satellites include a variety of spacecraft equipped with specific instruments for various scientific and technological missions. These include communications satellites like Starlink; space stations such as the ISS; scientific satellites like the Hubble; Earth observation satellites from companies like Planet Labs, Umbra, and HawkEye 360; GPS; miniature CubeSats for education and research; and military/defense satellites.

Loading next visibility...
Identifier
163, 1961-018A
Orbit
LEO
Country
Flag of USUS
Related business
Manufacturer
LMSC
Mission
Spacecraft
Bus & Motor
MIDAS, Unknown motor
Mass
~1,540 kg wet, 840 kg dry
Launch date (UTC)
1961-07-12 (64 years ago)
Launch vehicle
ATLAS AGENA B
Launch site
Air Force Western Test Range (AFWTR)
Object type
Payload
Rocket body
Debris
Shape & HBR
Unknown
Radar Cross Section
Large (>1 m²)

Expand to show TLE details & history
Last TLE update: 2 days ago

TLE from 2 days ago
0 MIDAS 3
1 00163U 61018A   25300.67700080  .00000005  00000-0  13011-2 0  9997
2 00163  91.1105 195.2426 0101074  50.3559 310.6180  8.91838418 93289
Epoch: 2025-10-27T16:14Z
TLE epoch observation values (Epoch: 2025-10-27T16:14:52.869Z)
Latitude
-0.00008°
Longitude
-84.7531°
Altitude
3,382.299 km
Speed
6.412 km/s
True Right ascension
13h 00m 58s
True Declination
0° 00' 00"
Sunlit
Object was in daylight at epoch
Visualization orbit readout
Latitude
Unknown
Longitude
Unknown
Altitude
Unknown
Speed
Unknown
Apparent Right ascension
Unknown
Apparent Declination
Unknown
Sunlit
N/A
Visualization observer readout
Local Sidereal Time
00:12:26
Azimuth
Unknown
Elevation
Unknown
Doppler factor
Unknown
Orbital elements
Apogee altitude
3,541.136 km
Perigee altitude
3,342.626 km
Semi-major axis
9,820.018 km
Eccentricity
0.01011
Inclination
91.1105°
RAAN
195.2426°
Arg. of periapsis
50.3559°
True anomaly
309.73158°
Mean anomaly
310.618°
Eccentric anomaly
310.17552°
Mean motion
2.23036 °/min
Orbital period
161.41 mins
BSTAR
0.0013011
Loading maneuver chart data...
Computing Atmospheric mass density...
Loading historical data...
Loading historical data...
Loading historical data...
Loading historical data...
Loading historical data...
Loading historical data...
Loading historical data...
Other satellites on launch #18 in the year 1961 (1961-07-12 UTC)

Documentation

Showing up to 5 results
|